HI8EES-1 Weather Reports


time (UTC)temp
C
wind
direction
speed
KPH
gust
KPH
rain 1hr
cm
rain 24hr
cm
rain mn
cm
humidity
%
barometer
mb
20260503072528 23 160 9.7 0.0 0.00 0.00 0.00 88 1016.0
20260503071527 24 160 9.7 0.0 0.00 0.00 0.00 88 1016.0
20260503070525 22 0 0.0 0.0 0.00 0.00 0.00 94 1016.0
20260503054514 22 0 0.0 0.0 0.00 0.00 0.00 88 1016.0
20260503053512 23 0 0.0 0.0 0.00 0.00 0.00 88 1016.0
20260503052511 23 0 0.0 0.0 0.00 0.00 0.00 88 1017.0
20260503051509 24 0 0.0 0.0 0.00 0.00 0.00 88 1016.0
20260503050507 22 150 16.1 0.0 0.00 0.00 0.00 88 1016.0
20260503045505 23 150 16.1 0.0 0.00 0.00 0.00 88 1016.0
20260503044504 23 150 16.1 0.0 0.00 0.00 0.00 88 1016.0
20260503043503 24 150 16.1 0.0 0.00 0.00 0.00 88 1016.0
20260503042501 22 150 16.1 0.0 0.00 0.00 0.00 83 1017.0
20260503041500 23 150 16.1 0.0 0.00 0.00 0.00 83 1017.0
20260503040459 23 150 16.1 0.0 0.00 0.00 0.00 83 1017.0
20260503035458 24 150 8.0 0.0 0.00 0.00 0.00 83 1017.0
20260503034456 25 150 8.0 0.0 0.00 0.00 0.00 83 1017.0
20260503033455 25 150 8.0 0.0 0.00 0.00 0.00 83 1017.0
20260503032453 22 150 8.0 0.0 0.00 0.00 0.00 83 1017.0
20260503031452 23 150 8.0 0.0 0.00 0.00 0.00 83 1017.0
20260503030450 23 150 8.0 0.0 0.00 0.00 0.00 83 1017.0
20260503025448 24 60 6.4 0.0 0.00 0.00 0.00 83 1017.0
20260503024446 25 60 6.4 0.0 0.00 0.00 0.00 83 1017.0
20260503023445 25 60 6.4 0.0 0.00 0.00 0.00 83 1017.0
20260503022444 22 70 12.9 0.0 0.00 0.00 0.00 83 1017.0
20260503021442 23 70 12.9 0.0 0.00 0.00 0.00 83 1016.0
20260503020441 23 70 14.5 0.0 0.00 0.00 0.00 83 1016.0
20260503015439 24 70 14.5 0.0 0.00 0.00 0.00 83 1016.0
20260503014438 25 70 14.5 0.0 0.00 0.00 0.00 83 1016.0
20260503013437 25 70 14.5 0.0 0.00 0.00 0.00 83 1016.0
20260503012435 22 70 14.5 0.0 0.00 0.00 0.00 83 1016.0
20260503011433 22 70 14.5 0.0 0.00 0.00 0.00 83 1016.0
20260503010431 23 100 12.9 0.0 0.00 0.00 0.00 83 1016.0
20260503005430 23 100 12.9 0.0 0.00 0.00 0.00 83 1016.0
20260503004429 24 100 12.9 0.0 0.00 0.00 0.00 83 1016.0
20260503003427 25 100 12.9 0.0 0.00 0.00 0.00 83 1016.0
20260503002426 25 100 12.9 0.0 0.00 0.00 0.00 83 1015.0
20260503001425 26 100 12.9 0.0 0.00 0.00 0.00 83 1015.0
20260503000415 26 100 14.5 0.0 0.00 0.00 0.00 83 1015.0
20260502235410 22 100 14.5 0.0 0.00 0.00 0.00 69 1015.0
20260502234409 23 100 14.5 0.0 0.00 0.00 0.00 69 1015.0
20260502233407 23 100 14.5 0.0 0.00 0.00 0.00 69 1015.0
20260502232406 24 100 14.5 0.0 0.00 0.00 0.00 69 1015.0
20260502231405 25 100 14.5 0.0 0.00 0.00 0.00 69 1014.0
20260502230403 25 110 9.7 0.0 0.00 0.00 0.00 69 1014.0
20260502225402 26 110 9.7 0.0 0.00 0.00 0.00 69 1014.0
20260502224401 26 110 9.7 0.0 0.00 0.00 0.00 69 1014.0
20260502223359 27 110 9.7 0.0 0.00 0.00 0.00 69 1014.0
20260502222358 27 110 9.7 0.0 0.00 0.00 0.00 69 1014.0
20260502221357 23 110 9.7 0.0 0.00 0.00 0.00 65 1014.0
20260502220355 24 90 9.7 0.0 0.00 0.00 0.00 65 1014.0
20260502215353 25 90 9.7 0.0 0.00 0.00 0.00 65 1014.0
20260502214352 25 90 9.7 0.0 0.00 0.00 0.00 65 1014.0
20260502213351 26 90 9.7 0.0 0.00 0.00 0.00 65 1014.0
20260502212349 26 90 9.7 0.0 0.00 0.00 0.00 65 1014.0
20260502211348 27 90 9.7 0.0 0.00 0.00 0.00 65 1014.0
20260502210347 27 140 9.7 0.0 0.00 0.00 0.00 65 1014.0
20260502205345 28 140 9.7 0.0 0.00 0.00 0.00 65 1014.0
20260502204344 24 140 9.7 0.0 0.00 0.00 0.00 62 1014.0
20260502203343 25 140 9.7 0.0 0.00 0.00 0.00 62 1014.0
20260502202341 25 140 9.7 0.0 0.00 0.00 0.00 62 1014.0
20260502201339 26 140 9.7 0.0 0.00 0.00 0.00 62 1014.0
20260502200338 26 90 9.7 0.0 0.00 0.00 0.00 62 1014.0
20260502195337 27 90 9.7 0.0 0.00 0.00 0.00 62 1014.0
20260502194335 27 90 9.7 0.0 0.00 0.00 0.00 62 1014.0
20260502193334 28 90 9.7 0.0 0.00 0.00 0.00 62 1014.0
20260502192333 28 90 9.7 0.0 0.00 0.00 0.00 62 1015.0
20260502191331 29 90 9.7 0.0 0.00 0.00 0.00 62 1015.0
20260502190330 25 120 17.7 0.0 0.00 0.00 0.00 66 1015.0
20260502185328 26 120 17.7 0.0 0.00 0.00 0.00 66 1015.0
20260502184327 26 120 17.7 0.0 0.00 0.00 0.00 66 1015.0
20260502183326 27 120 17.7 0.0 0.00 0.00 0.00 66 1015.0
20260502182325 27 120 17.7 0.0 0.00 0.00 0.00 66 1015.0
20260502181323 28 120 17.7 0.0 0.00 0.00 0.00 66 1015.0
20260502180322 28 120 17.7 0.0 0.00 0.00 0.00 66 1015.0
20260502170313 27 110 22.5 0.0 0.00 0.00 0.00 70 1016.0
20260502164310 25 110 22.5 0.0 0.00 0.00 0.00 70 1016.0
20260502163308 26 110 22.5 0.0 0.00 0.00 0.00 70 1016.0
20260502162307 26 110 22.5 0.0 0.00 0.00 0.00 70 1016.0
20260502161306 27 110 22.5 0.0 0.00 0.00 0.00 70 1016.0
20260502160304 27 100 20.9 0.0 0.00 0.00 0.00 70 1016.0
20260502152258 26 100 20.9 0.0 0.00 0.00 0.00 65 1016.0
20260502151257 27 100 20.9 0.0 0.00 0.00 0.00 65 1016.0
20260502150256 27 100 20.9 0.0 0.00 0.00 0.00 65 1016.0
20260502130239 26 100 9.7 0.0 0.00 0.00 0.00 74 1016.0
20260502123235 23 100 9.7 0.0 0.00 0.00 0.00 83 1016.0
20260502122234 23 100 9.7 0.0 0.00 0.00 0.00 83 1016.0
20260502121233 24 100 9.7 0.0 0.00 0.00 0.00 83 1016.0
20260502120231 25 100 8.0 0.0 0.00 0.00 0.00 83 1016.0
20260502115230 25 100 8.0 0.0 0.00 0.00 0.00 83 1016.0
20260502114229 23 100 8.0 0.0 0.00 0.00 0.00 83 1016.0
20260502113227 23 100 8.0 0.0 0.00 0.00 0.00 83 1015.0
20260502112225 24 100 8.0 0.0 0.00 0.00 0.00 83 1015.0
20260502111224 25 100 8.0 0.0 0.00 0.00 0.00 83 1015.0
20260502110222 25 100 8.0 0.0 0.00 0.00 0.00 83 1015.0
20260502105221 22 90 9.7 0.0 0.00 0.00 0.00 89 1015.0
20260502104220 22 90 9.7 0.0 0.00 0.00 0.00 89 1015.0
20260502103218 23 90 9.7 0.0 0.00 0.00 0.00 89 1015.0
20260502102217 23 90 9.7 0.0 0.00 0.00 0.00 89 1014.0
20260502101216 24 90 9.7 0.0 0.00 0.00 0.00 89 1014.0
20260502100214 25 110 9.7 0.0 0.00 0.00 0.00 89 1014.0
20260502091207 23 120 12.9 0.0 0.00 0.00 0.00 89 1014.0
20260502090204 23 120 12.9 0.0 0.00 0.00 0.00 89 1013.0